{"data":{"norad_id":66490,"intl_designator":"2025-263F","name":"STARLINK-35693","alt_names":[],"object_type":"PAYLOAD","status":"ACTIVE","operator":null,"country":"US","launch_date":"2025-11-15","launch_site_code":"AFETR","launch_vehicle":null,"mission":null,"orbit_class":"UNKNOWN","rcs_meters":null,"size_class":null,"mass_kg":null,"dimensions":null,"purposes":["comms"],"wikipedia_slug":null,"has_3d_model":false,"image_url":null,"decayed_at":null,"tle_current":{"epoch":"2026-05-24T17:54:28.236096Z","epoch_age_seconds":87251,"freshness":"FRESH","line1":"1 66490U 25263F   26144.74616014  .00018693  00000+0  68688-3 0  9994","line2":"2 66490  43.0003 280.9234 0001244 272.7767  87.2942 15.27590314 30534","mean_motion":15.27590314,"eccentricity":0.0001244,"inclination_deg":43.0003,"raan_deg":280.9234,"arg_perigee_deg":272.7767,"mean_anomaly_deg":87.2942,"bstar":0.00068688,"rev_number":3053,"period_min":94.266112242448,"perigee_km":482.16468467856,"apogee_km":483.8717400954,"semimajor_km":6861.155212387,"source":"CELESTRAK","updated_at":"2026-05-25T13:38:21.242719Z"}}}